Orbital Elements at Epoch 2459200.5 (2020-Dec-17.0) TDB
Reference: JPL 22 (heliocentric ecliptic J2000)
Element | Value | Uncertainty (1-sigma) | Units |
e | .1072790592457038 | 4.0226e-08 | |
a | 2.158433562333439 | 8.6976e-09 | au |
q | 1.926878840321955 | 9.1485e-08 | au |
i | 1.695477418526092 | 4.0085e-06 | deg |
node | 213.5284573005374 | 0.0001052 | deg |
peri | 204.4878931045102 | 0.00010718 | deg |
M | 317.3136784950858 | 2.2138e-05 | deg |
tp | 2459337.838621913810 (2021-May-03.33862191) | 7.172e-05 | TDB |
period | 1158.261057544617 3.17 | 7.001e-06 1.917e-08 | d yr |
n | .3108107603679255 | 1.8787e-09 | deg/d |
Q | 2.389988284344924 | 9.6307e-09 | au |
|
| | Orbit Determination Parameters
Additional Information
|